Regional Weather Roundup
Issued by NWS Pendleton, OR

Home | Current Version | Previous Version | Text Only | Print | Product List | Glossary On
Versions: 1 2 3 4 5 6 7 8 9 10 11 12 13 14 15 16 17 18 19 20 21 22 23 24 25 26 27 28 29 30 31 32 33 34 35 36 37 38 39 40 41 42 43 44 45 46 47 48 49 50
395
ASUS46 KPDT 261504
RWRPDT
PENDLETON REGIONAL WEATHER ROUNDUP
NATIONAL WEATHER SERVICE PENDLETON OREGON
800 AM PDT WED JUL 26 2017

NOTE: FAIR INDICATES FEW OR NO CLOUDS BELOW 12,000 FEET WITH NO
SIGNIFICANT WEATHER AND/OR OBSTRUCTIONS TO VISIBILITY.

# INDICATES UNOFFICIAL STATION AND DATA

WAZ520-261610-
EAST SLOPES OF WASHINGTON CASCADES

CITY            SKY/WX      TMP DP  RH  WIND    PRES   REMARKS
#BULLFROG       N/A         60  49  67  S1      N/A
#CLE ELUM HS    N/A         58  49  72  CALM    29.98S
#CLE ELUM LAKE  N/A         60  43  53  E1      30.07S
#EASTON DOT     N/A         61  49  65  CALM    N/A
#ELK HTS DOT    N/A         63  63  100 N1      N/A
#GLENWOOD       N/A         58  54  87  CALM    29.95S
#NELSON 3SW     N/A         60  46  60  CALM    30.13S
#NILE           N/A         62  47  58  CALM    29.26S
#TEANAWAY 4NE   N/A         58  50  75  CALM    N/A
#TROUT LAKE 1NE N/A         60  52  75  CALM    29.94R
#TROUT LAKE 1E  N/A         55  51  86  CALM    30.08R
$$

WAZ521-261610-
SIMCOE HIGHLANDS

CITY            SKY/WX      TMP DP  RH  WIND    PRES   REMARKS
#BICKLETON HS   N/A         77  53  43  CALM    29.98R
#CENTERVILLE 1SWN/A         68  55  63  CALM    29.89S
#GOLDENDALE 1NE N/A         66  41  40  S2      N/A
#GOLDENDALE 4W  N/A         72  22  15  CALM    30.06S
#GOODNOE HILLS  N/A         73  56  55  W10     N/A
#LYLE 6NE       N/A         65  57  75  S5      29.96R
#PITT 4SE       N/A         64  54  70  SW2     29.95R
$$

WAZ026-261610-
KITTITAS VALLEY

CITY            SKY/WX      TMP DP  RH  WIND    PRES   REMARKS
ELLENSBURG AP   PTCLDY      68  50  53  NE7     30.03R
#ELLENSBURG CWU N/A         64  52  65  CALM    29.88S
#ELLENSBURG 3NE N/A         63  53  70  CALM    28.10R
#ELLENSBURG 1E  N/A         63  52  67  CALM    29.97S
#KITTITAS 3S    N/A         62  56  81  CALM    29.93S
#MANASTASH RDG  N/A         68  68  100 NW8     N/A
#ROCKY CYN DOT  N/A         68  53  59  W12     N/A
#RYEGRASS DOT   N/A         66  50  56  W9      N/A
$$

WAZ027-261610-
YAKIMA VALLEY

CITY            SKY/WX      TMP DP  RH  WIND    PRES   REMARKS
SUNNYSIDE AP    N/A         65  55  70  CALM    29.98R
YAKIMA AIRPORT  SUNNY       74  52  46  W9      30.00R
YAKIMA-VAGABOND SUNNY       74  43  33  N8      29.99R
#DONALD 2NE     N/A         89  26  10  SE6     28.78S
#GRANDVIEW      N/A         68  52  57  CALM    29.95R
#MABTON         N/A         68  59  73  CALM    29.96R
#MOXEE 2E       N/A         70  N/A N/A CALM    29.92S
#NACHES 2SW     N/A         69  47  45  NW5     30.02R
#OUTLOOK DOT    N/A         69  54  59  CALM    29.94R
#PARKER DOT     N/A         75  44  33  SE12    29.96R
#TERRACE HTS    N/A         67  52  59  CALM    29.88S
#TOPPENISH      N/A         71  54  55  CALM    29.85R
#I82 S UMTANUM RN/A         73  49  43  CALM    N/A
#UNION GAP DOT  N/A         74  45  35  NW7     30.00R
#W YAKIMA       N/A         74  52  46  CALM    29.92S
#WHITE SWAN 5E  N/A         65  56  73  CALM    29.93R
#WILEY CITY 3W  N/A         74  48  40  CALM    29.98S
#ZILLAH DOT     N/A         69  54  59  E1      N/A
$$

WAZ028-261610-
LOWER COLUMBIA BASIN...WASHINGTON

CITY            SKY/WX      TMP DP  RH  WIND    PRES   REMARKS
PASCO           SUNNY       70  52  53  E5      29.97R
PROSSER AWOS    N/A         73  55  53  CALM    30.00R
RICHLAND AWOS   SUNNY       72  52  49  CALM    29.97R
#BENTON CITY    N/A         72  53  51  CALM    29.84R
#CONNELL 5N     N/A         70  46  42  CALM    29.93R
#CONNELL 5NW    N/A         65  50  58  CALM    29.89R
#ELTOPIA 6NW    N/A         67  54  63  CALM    28.95R
#KAHLOTUS       N/A         64  41  43  S3      29.92R
#KENNEWICK 3S   N/A         76  55  48  S1      29.93R
#PATERSON       N/A         69  53  57  CALM    29.93R
#PROSSER DOT    N/A         71  52  51  CALM    29.97R
#SAGEMOOR 2W    N/A         70  52  53  CALM    29.80R
#TOUCHET 2S     N/A         64  53  67  CALM    29.93R
#WEST PASCO     N/A         66  55  68  E1      29.96R
$$

WAZ029-261610-
FOOTHILLS OF THE BLUES...WASHINGTON

CITY            SKY/WX      TMP DP  RH  WIND    PRES   REMARKS
WALLA WALLA AP  SUNNY       78  46  32  SW8     29.99R
#CLYDE 6NW      N/A         74  45  35  S2      29.91S
#DAYTON SCHOOL  N/A         72  43  35  CALM    30.02R
#LOWDEN 2SE     N/A         72  54  53  CALM    29.94R
#PLEASANT VIEW 1N/A         76  43  31  SE5     29.93R
#PRESCOTT       N/A         67  51  56  CALM    29.93S
#WHITMAN COLLEGEN/A         76  50  40  CALM    29.97R
#WAITSBURG 5S   N/A         76  46  34  CALM    30.00S
#WAITSBURG 6SSE N/A         75  47  37  S3      29.96R
#WALLA WALLA 5E N/A         79  50  36  CALM    N/A
#WHITMAN MISSIONN/A         64  57  78  CALM    29.95R
$$

WAZ030-261610-
BLUE MOUNTAINS...WASHINGTON

CITY            SKY/WX      TMP DP  RH  WIND    PRES   REMARKS
#DIXIE 5SE      N/A         76  39  26  CALM    30.00R
$$

ORZ009-041-WAZ024-261610-
COLUMBIA RIVER GORGE

CITY            SKY/WX      TMP DP  RH  WIND    PRES   REMARKS
HOOD RIVER AP   PTCLDY      63  52  67  CALM    30.02R
THE DALLES AP   PTCLDY      73  58  59  NW9     29.98R
#ARLINGTON AIRPON/A         73  56  55  W9      29.94R
#CELILO DOT     N/A         74  56  53  W3      N/A
#LYLE           N/A         70  59  68  W10     29.99R
#MARYHILL       N/A         71  55  57  N8      29.85R
#RUFUS DOT      N/A         74  N/A N/A W9      N/A
#SMITHVILLE     N/A         70  58  66  N13     29.97R

$$

ORZ510-261610-
NORTH CENTRAL OREGON

CITY            SKY/WX      TMP DP  RH  WIND    PRES   REMARKS
#ANTELOPE       N/A         64  49  58  CALM    29.78R
#CHENOWITH 1W   N/A         64  55  73  W22     N/A
#COW CYN RST AREN/A         71  41  34  SW8     N/A
#DUFUR          N/A         65  51  60  CALM    29.92R
#DUFUR 9E       N/A         71  47  42  CALM    29.96R
#GRASS VALLEY 1SN/A         69  47  45  SW2     30.07R
#KENT DOT       N/A         64  44  48  SW3     N/A
#MAUPIN SCHOOL  N/A         67  54  63  CALM    30.06R
#MORO SCHOOL    N/A         73  54  51  W10     30.01R
#SHANIKO 5WSW   N/A         68  42  39  N6      N/A
#SHANIKO 4NW    N/A         70  41  35  SW2     30.11R
#TYGH VALLEY 2NEN/A         67  51  56  CALM    29.94R
#WAPANITIA AIRPON/A         71  49  46  NW2     29.94R
#WASCO 5NE      N/A         73  54  51  N6      29.92R
$$

ORZ511-261610-
CENTRAL OREGON

CITY            SKY/WX      TMP DP  RH  WIND    PRES   REMARKS
BEND AIRPORT    MOCLDY      68  50  53  CALM    30.14R
MADRAS AIRPORT  MOCLDY      68  45  44  E6      30.11R
PRINEVILLE AP   CLOUDY      66  45  47  E7      30.13R
REDMOND AIRPORT MOCLDY      68  50  53  CALM    30.11R
#ASHWOOD SCHOOL N/A         60  38  44  CALM    30.04R
#BEND 1SW       N/A         66  53  63  CALM    N/A
#BEND-AWBREY    N/A         66  53  63  S5      29.91R
#BEND-KIM LN    N/A         63  53  70  CALM    29.88R
#CULVER         N/A         65  52  63  SE1     29.86R
#CULVER 8W      N/A         76  46  34  E3      30.09R
#LAKE BILLY CHINN/A         66  N/A N/A CALM    30.03S
#MADRAS 4S      N/A         66  13  13  CALM    N/A
#POWELL BUTTE   N/A         69  55  61  CALM    30.07R
#PRINEVILLE     N/A         66  42  42  CALM    30.01R
#PRINEVILLE 3N  N/A         60  51  72  N2      30.03R
#WARM SPRINGS   N/A         68  51  55  CALM    29.85R

$$


ORZ509-261610-
EAST SLOPES OF OREGON CASCADES

CITY            SKY/WX      TMP DP  RH  WIND    PRES   REMARKS
SISTERS AWOS    N/A         61  52  72  CALM    N/A
#BLUE BOX PASS  N/A         59  N/A N/A NW1     N/A
#CAMP SHERMAN   N/A         58  52  80  CALM    30.03S
#LA PINE 4NW    N/A         57  51  80  CALM    29.96S
#LAVA BUTTE DOT N/A         62  51  67  CALM    N/A
#SISTERS ODOT   N/A         60  50  69  CALM    N/A
#SISTERS 3N     N/A         60  51  72  CALM    30.03R
#SUNRIVER       N/A         60  54  81  CALM    30.08R
#TUMALO 3W      N/A         65  51  60  CALM    29.80R
#WANOGA BUTTE D N/A         64  45  50  W3      N/A

$$

ORZ044-261610-
LOWER COLUMBIA BASIN...OREGON

CITY            SKY/WX      TMP DP  RH  WIND    PRES   REMARKS
HERMISTON       PTCLDY      74  48  40  CALM    29.97R
#BOARDMAN SCHOOLN/A         67  54  63  N1      29.96R
#BOARDMAN 8SW   N/A         73  58  59  W2      29.94R
#ECHO 8SW       N/A         76  52  43  CALM    29.98S
#I-84 EX 198 DOTN/A         75  52  45  NE2     N/A
#IONE SCHOOL    N/A         71  49  46  CALM    29.95R
#UMATILLA       N/A         68  50  53  CALM    29.88R
$$

ORZ507-261610-
NORTHERN FOOTHILLS OF THE BLUES

CITY            SKY/WX      TMP DP  RH  WIND    PRES   REMARKS
PENDLETON AIRPT SUNNY       73  42  33  SE5     30.01R
#ADAMS 3WNW     N/A         75  47  37  CALM    29.93S
#ATHENA         N/A         78  51  39  CALM    29.96S
#CAYUSE         N/A         72  48  43  E3      29.92R
#HELIX SCHOOL   N/A         65  45  48  CALM    29.94R
#HELIX 3N       N/A         74  47  38  S7      30.00R
#HOLDMAN 6E     N/A         73  47  40  SE5     29.74R
#M-F GROVE ELEM N/A         76  45  33  CALM    29.96S
#M-FREEWATER 5SEN/A         73  49  43  CALM    29.99R
#PENDLETON DNTN N/A         61  42  50  CALM    30.01R
#PDT AQUATIC CTRN/A         63  44  50  CALM    29.99S
#PDT SUNRIDGE   N/A         68  47  47  CALM    30.02R
#PENDLETON 7NW  N/A         71  47  42  E7      30.02R
#PILOT ROCK 1S  N/A         76  42  30  SE5     30.03S
#PILOT ROCK     N/A         70  47  44  CALM    30.04R
#TUTUILLA       N/A         66  52  61  CALM    30.07R
#UMAPINE 2E     N/A         77  59  54  CALM    29.94R
#WESTON SCHOOL  N/A         72  44  37  NW5     29.95R

$$

ORZ508-261610-
SOUTHERN FOOTHILLS OF THE BLUES

CITY            SKY/WX      TMP DP  RH  WIND    PRES   REMARKS
LEXINGTON       PTCLDY      77  43  30  SE6     30.05R
#AJAX           N/A         71  41  34  S2      30.19R
#CONDON 5W      N/A         72  45  38  CALM    30.08R
#FOSSIL SCHOOL  N/A         66  42  42  CALM    30.02R
#HEPPNER EOC    N/A         74  45  35  E3      29.87R
#HEPPNER 4NE    N/A         74  45  35  CALM    29.92R
#LEXINGTON 2SE  N/A         75  45  34  SE5     29.98S
#MIKKALO        N/A         75  44  33  W3      30.14R
#OLEX 4N        N/A         75  50  41  SW8     29.98R
#RUGGS 5NE      N/A         77  46  33  S1      30.27R
#RUGGS 2SW      N/A         75  44  33  E1      29.93S

$$

ORZ502-503-261610-
BLUE MOUNTAINS

CITY            SKY/WX      TMP DP  RH  WIND    PRES   REMARKS
MEACHAM         PTCLDY      57  40  53  CALM    30.13R
#BATTLE MTN DOT N/A         56  36  47  S3      N/A
#GRANITE        N/A         51  37  59  CALM    29.85S
#HEPPNER 15SE   N/A         60  50  69  CALM    29.97R
#LADD CYN SMT   N/A         62  45  54  SE6     N/A
#LADD CREEK ODOTN/A         61  43  51  S3      N/A
#LONG CREEK HS  N/A         64  43  46  CALM    N/A
#N POWDER DOT   N/A         59  51  75  CALM    N/A
#PIKES PEAK     N/A         71  39  31  CALM    27.99S
#TOLLGATE       N/A         70  42  36  N1      30.02S
#TROY SCHOOL    N/A         67  45  45  CALM    29.81F
#UKIAH          N/A         51  42  71  CALM    29.94R
#WESTON 4E      N/A         74  43  33  S1      29.87R
$$

ORZ505-261610-
JOHN DAY BASIN

CITY            SKY/WX      TMP DP  RH  WIND    PRES   REMARKS
JOHN DAY        PTCLDY      68  39  35  CALM    30.14F
#JOHN DAY KJDY  N/A         63  N/A N/A CALM    31.07R
#ANTELOPE 9ESE  N/A         68  42  39  CALM    N/A
#DAYVILLE SCHOOLN/A         68  39  35  CALM    30.06R
#MITCHELL       N/A         67  44  43  CALM    30.25S
#MITCHELL 8NW   N/A         71  40  32  CALM    29.95R
#MONUMENT HS    N/A         63  45  52  SW1     30.03S
#MT. VERNON 5SE N/A         65  44  46  SE2     30.11R
#SPRAY SCHOOL   N/A         66  N/A N/A CALM    N/A
$$

ORZ506-261610-
OCHOCO AND JOHN DAY HIGHLANDS

CITY            SKY/WX      TMP DP  RH  WIND    PRES   REMARKS
#HORSE RIDGE DO N/A         60  45  58  S2      N/A
#IZEE 6NW       N/A         69  53  57  CALM    N/A
#PAULINA ODOT   N/A         65  49  56  N2      N/A
#PINE MTN OBS   N/A         60  48  64  E5      N/A
#PRAIRIE CITY   N/A         61  47  60  CALM    30.27
#SENECA         N/A         67  N/A N/A CALM    N/A
#SENECA 9NW     N/A         57  48  72  CALM    29.89R
$$

ORZ049-261610-
GRANDE RONDE VALLEY

CITY            SKY/WX      TMP DP  RH  WIND    PRES   REMARKS
LA GRANDE       PTCLDY      63  39  41  CALM    30.10R
#COVE           N/A         60  51  72  CALM    30.12R
#COVE SCHOOL    N/A         60  49  67  CALM    30.11R
#COVE 6NW       N/A         57  46  67  CALM    29.98R
#ELGIN 3N       N/A         59  42  53  SW1     30.07R
#ELGIN 1E       N/A         54  43  66  CALM    N/A
#IMBLER SCHOOL  N/A         58  44  60  CALM    30.05R
#ISLAND CITY 4N N/A         62  55  78  CALM    30.08R
#LA GRANDE-LEFFEN/A         65  42  43  W6      30.09R
#UNION 1S       N/A         59  46  62  CALM    29.95R
$$

ORZ050-261610-
WALLOWA COUNTY

CITY            SKY/WX      TMP DP  RH  WIND    PRES   REMARKS
#ENTERPRISE HS  N/A         58  45  62  CALM    29.84S
#IMNAHA SCHOOL  N/A         67  39  36  S3      30.05S
#IMNAHA 10S     N/A         65  38  37  SW2     30.08S
#JOSEPH         N/A         71  50  47  CALM    30.07R
#JOSEPH 3N      N/A         55  40  57  CALM    30.14S
#JOSEPH 3W      N/A         71  45  39  CALM    N/A
#LOSTINE        N/A         59  42  53  CALM    29.75F
#LOSTINE 3SE    N/A         61  41  48  SW2     30.17R
#MT HOWARD 8000 N/A         63  31  30  CALM    30.38S
#PROMISE 1S     N/A         67  43  42  CALM    29.97F
#WALLOWA LAKE   N/A         61  47  60  CALM    30.18S
#WALLOWA SCHOOL N/A         57  42  57  CALM    30.07R



$$



USA.gov is the U.S. government's official web portal to all federal, state and local government web resources and services.